Mumbai, India

10:44 AM IST on March 30, 2017 (GMT +0530)
Chhatrapati Shivaji International

Weather History for VABB - February, 2014

Change the Weather History Date:

Sunday, February 16, 2014

  Actual Average Record
Temperature  
Mean Temperature 72 °F -  
Max Temperature 82 °F 88 °F 97 °F (2017)
Min Temperature 61 °F 70 °F 61 °F (2014)
Cooling Degree Days 6    
Growing Degree Days 22 (Base 50)    
Moisture  
Dew Point 57 °F    
Average Humidity 59    
Maximum Humidity 88    
Minimum Humidity 31    
Precipitation  
Precipitation 0.00 in - - ()
Sea Level Pressure  
Sea Level Pressure 29.89 in    
Wind  
Wind Speed 4 mph ()    
Max Wind Speed 14 mph    
Max Gust Speed 20 mph    
Visibility 2.0 miles    
Events      
Averages and records for this station are not official NWS values.
T = Trace of Precipitation, MM = Missing Value Source: Averaged Metar Reports

Daily Weather History Graph

Daily Weather History Graph

Search for Another Location

Airport or City:

Trip Planner

Search our weather history database for the weather conditions in past years. The results will help you decide how hot, cold, wet, or windy it might be!

Date:

Astronomy

Feb. 16, 2014 Rise Set
Actual Time 7:06 AM IST 6:39 PM IST
Civil Twilight 6:44 AM IST 7:01 PM IST
Nautical Twilight 6:18 AM IST 7:27 PM IST
Astronomical Twilight 5:52 AM IST 7:52 PM IST
Moon 7:50 PM IST (2/16) 7:37 AM IST (2/16)
Length of Visible Light 12h 17m
Length of Day
11h 32m
Full, 99% of the Moon is Illuminated
Feb 16
Full
Feb 22
Last Quarter
Mar 1
New
Mar 8
First Quarter
Mar 16
Full

Hourly Weather History & Observations

Time (IST) Temp. Heat Index Dew Point Humidity Pressure Visibility Wind Dir Wind Speed Gust Speed Precip Events Conditions
12:10 AM 69.8 °F - 62.6 °F 78% 29.89 in 1.9 mi Calm Calm - N/A   Haze
12:40 AM 69.8 °F - 62.6 °F 78% 29.86 in 1.4 mi Calm Calm - N/A   Haze
1:10 AM 68.0 °F - 62.6 °F 83% 29.86 in 1.2 mi NNE 3.5 mph - N/A   Haze
1:40 AM 68.0 °F - 62.6 °F 83% 29.86 in 1.2 mi NNE 3.5 mph - N/A   Haze
2:10 AM 68.0 °F - 60.8 °F 78% 29.86 in 1.2 mi Calm Calm - N/A   Haze
2:30 AM 63 °F - 59 °F 83% 29.86 in 1 mi Calm Calm - -   Haze
2:40 AM 68.0 °F - 60.8 °F 78% 29.86 in 1.4 mi Calm Calm - N/A   Haze
3:10 AM 68.0 °F - 60.8 °F 78% 29.83 in 1.6 mi Calm Calm - N/A   Haze
3:40 AM 66.2 °F - 60.8 °F 83% 29.83 in 1.6 mi Calm Calm - N/A   Haze
4:10 AM 66.2 °F - 60.8 °F 83% 29.83 in 1.6 mi SE 4.6 mph - N/A   Haze
4:40 AM 66.2 °F - 60.8 °F 83% 29.83 in 1.6 mi East 3.5 mph - N/A   Haze
5:10 AM 66.2 °F - 60.8 °F 83% 29.83 in 1.6 mi ENE 3.5 mph - N/A   Haze
5:30 AM 63 °F - 60 °F 85% 29.85 in 1 mi NE 3.5 mph - -   Haze
5:40 AM 64.4 °F - 60.8 °F 88% 29.83 in 1.6 mi East 3.5 mph - N/A   Haze
6:10 AM 66.2 °F - 60.8 °F 83% 29.86 in 1.6 mi East 3.5 mph - N/A   Haze
6:40 AM 66.2 °F - 60.8 °F 83% 29.86 in 1.6 mi East 3.5 mph - N/A   Haze
7:10 AM 66.2 °F - 60.8 °F 83% 29.89 in 1.4 mi Calm Calm - N/A   Haze
7:40 AM 66.2 °F - 60.8 °F 83% 29.89 in 1.6 mi NE 4.6 mph - N/A   Haze
8:10 AM 68.0 °F - 60.8 °F 78% 29.92 in 1.6 mi NE 6.9 mph - N/A   Haze
8:30 AM 67 °F - 61 °F 75% 29.91 in 1 mi NE 4.6 mph - -   Haze
8:40 AM 69.8 °F - 60.8 °F 73% 29.92 in 1.6 mi NNE 5.8 mph - N/A   Haze
9:10 AM 71.6 °F - 59.0 °F 64% 29.92 in 1.6 mi NNE 6.9 mph - N/A   Haze
10:10 AM 73.4 °F - 57.2 °F 57% 29.95 in 2.2 mi NE 6.9 mph - N/A   Haze
10:40 AM 75.2 °F - 57.2 °F 53% 29.95 in 2.2 mi North 4.6 mph - N/A   Smoke
11:10 AM 77.0 °F - 57.2 °F 50% 29.95 in 2.5 mi NE 5.8 mph - N/A   Smoke
11:30 AM 79 °F - 58 °F 38% 29.95 in 1 mi 4.6 mph - -   Smoke
11:40 AM 77.0 °F - 55.4 °F 47% 29.95 in 2.5 mi East 5.8 mph - N/A   Smoke
12:10 PM 78.8 °F - 53.6 °F 42% 29.92 in 2.5 mi NNE 6.9 mph - N/A   Smoke
12:40 PM 78.8 °F - 53.6 °F 42% 29.92 in 2.5 mi SW 4.6 mph - N/A   Smoke
1:10 PM 78.8 °F - 51.8 °F 39% 29.89 in 2.5 mi SW 6.9 mph - N/A   Smoke
1:40 PM 80.6 °F - 51.8 °F 37% 29.89 in 2.5 mi NW 5.8 mph - N/A   Smoke
2:10 PM 80.6 °F - 51.8 °F 37% 29.86 in 2.5 mi WNW 9.2 mph - N/A   Smoke
2:30 PM 82 °F - 57 °F 31% 29.86 in 1 mi NW 6.9 mph - -   Smoke
2:40 PM 80.6 °F 81.1 °F 59.0 °F 48% 29.86 in 3.1 mi WNW 13.8 mph - N/A   Smoke
3:10 PM 78.8 °F - 60.8 °F 54% 29.86 in 3.1 mi WNW 8.1 mph 19.6 mph N/A   Smoke
3:40 PM 78.8 °F - 59.0 °F 51% 29.86 in 3.1 mi WNW 8.1 mph 19.6 mph N/A   Smoke
4:10 PM 78.8 °F - 57.2 °F 47% 29.86 in 3.1 mi WNW 12.7 mph - N/A   Smoke
4:40 PM 78.8 °F - 59.0 °F 51% 29.86 in 3.1 mi WNW 9.2 mph - N/A   Smoke
5:10 PM 78.8 °F - 55.4 °F 44% 29.86 in 3.1 mi WNW 8.1 mph - N/A   Smoke
5:30 PM 79 °F - 54 °F 31% 29.88 in 1 mi NW 9.2 mph - -  
5:40 PM 78.8 °F - 53.6 °F 42% 29.86 in 3.1 mi NW 13.8 mph - N/A   Smoke
6:10 PM 77.0 °F - 53.6 °F 44% 29.89 in 3.1 mi WNW 11.5 mph - N/A   Smoke
6:40 PM 77.0 °F - 57.2 °F 50% 29.89 in 3.1 mi NW 10.4 mph - N/A   Smoke
7:10 PM 75.2 °F - 57.2 °F 53% 29.92 in 2.5 mi NW 9.2 mph - N/A   Smoke
7:40 PM 77.0 °F - 51.8 °F 41% 29.92 in 2.5 mi NNW 12.7 mph - N/A   Smoke
8:10 PM 75.2 °F - 50.0 °F 41% 29.92 in 2.5 mi NNW 9.2 mph - N/A   Smoke
8:30 PM 74 °F - 52 °F 36% 29.93 in 1 mi NNW 6.9 mph - -   Smoke
8:40 PM 75.2 °F - 50.0 °F 41% 29.92 in 2.5 mi NNW 6.9 mph - N/A   Smoke
9:10 PM 73.4 °F - 48.2 °F 41% 29.95 in 2.5 mi NNW 9.2 mph - N/A   Smoke
10:10 PM 75.2 °F - 48.2 °F 38% 29.95 in 2.5 mi NNE 9.2 mph - N/A   Smoke
10:40 PM 73.4 °F - 50.0 °F 44% 29.95 in 2.5 mi ENE 5.8 mph - N/A   Smoke
11:10 PM 71.6 °F - 51.8 °F 50% 29.95 in 2.5 mi North 4.6 mph - N/A   Smoke
11:30 PM 70 °F - 52 °F 42% 29.95 in 1 mi North 3.5 mph - -   Smoke
11:40 PM 71.6 °F - 50.0 °F 46% 29.95 in 2.5 mi NE 4.6 mph - N/A   Haze